Location: Excel
(51.3833°N, 110.5667°W)
Time: 20:58:21
(UTC+00:00)

Envisat - Pass Details

Date: 10 December 2021
Orbit: 764 x 766 km, 98.2° (Epoch: 26 January)

Event Time Altitude Azimuth Distance (km) Brightness Sun altitude
Rises 11:47:46 0° 20° (NNE) 3,247 6.5 -31.2°
Reaches altitude 10° 11:50:15 10° 29° (NNE) 2,315 5.8 -30.9°
Maximum altitude 11:54:58 37° 96° (E) 1,187 4.4 -30.1°
Drops below altitude 10° 11:59:38 10° 163° (SSE) 2,298 5.6 -29.4°
Sets 12:02:06 0° 172° (S) 3,219 6.3 -29.0°
